Year,Month,Day,Hour,Minute,Value (Times are PST for insolation in W/m^2)
2012,04,17,00,00,0.00
2012,04,17,00,01,0.00
2012,04,17,00,02,0.00
2012,04,17,00,03,0.00
2012,04,17,00,04,0.00
2012,04,17,00,05,0.00
2012,04,17,00,06,0.00
2012,04,17,00,07,0.00
2012,04,17,00,08,0.00
2012,04,17,00,09,0.00
2012,04,17,00,10,0.00
2012,04,17,00,11,0.00
2012,04,17,00,12,0.00
2012,04,17,00,13,0.00
2012,04,17,00,14,0.00
2012,04,17,00,15,0.00
2012,04,17,00,16,0.00
2012,04,17,00,17,0.00
2012,04,17,00,18,0.00
2012,04,17,00,19,0.00
2012,04,17,00,20,0.00
2012,04,17,00,21,0.00
2012,04,17,00,22,0.00
2012,04,17,00,23,0.00
2012,04,17,00,24,0.00
2012,04,17,00,25,0.00
2012,04,17,00,26,0.00
2012,04,17,00,27,0.00
2012,04,17,00,28,0.00
2012,04,17,00,29,0.00
2012,04,17,00,30,0.00
2012,04,17,00,31,0.00
2012,04,17,00,32,0.00
2012,04,17,00,33,0.00
2012,04,17,00,34,0.00
2012,04,17,00,35,0.00
2012,04,17,00,36,0.00
2012,04,17,00,37,0.00
2012,04,17,00,38,0.00
2012,04,17,00,39,0.00
2012,04,17,00,40,0.00
2012,04,17,00,41,0.00
2012,04,17,00,42,0.00
2012,04,17,00,43,0.00
2012,04,17,00,44,0.00
2012,04,17,00,45,0.00
2012,04,17,00,46,0.00
2012,04,17,00,47,0.00
2012,04,17,00,48,0.00
2012,04,17,00,49,0.00
2012,04,17,00,50,0.00
2012,04,17,00,51,0.00
2012,04,17,00,52,0.00
2012,04,17,00,53,0.00
2012,04,17,00,54,0.00
2012,04,17,00,55,0.00
2012,04,17,00,56,0.00
2012,04,17,00,57,0.00
2012,04,17,00,58,0.00
2012,04,17,00,59,0.00
2012,04,17,01,00,0.00
2012,04,17,01,01,0.00
2012,04,17,01,02,0.00
2012,04,17,01,03,0.00
2012,04,17,01,04,0.00
2012,04,17,01,05,0.00
2012,04,17,01,06,0.00
2012,04,17,01,07,0.00
2012,04,17,01,08,0.00
2012,04,17,01,09,0.00
2012,04,17,01,10,0.00
2012,04,17,01,11,0.00
2012,04,17,01,12,0.00
2012,04,17,01,13,0.00
2012,04,17,01,14,0.00
2012,04,17,01,15,0.00
2012,04,17,01,16,0.00
2012,04,17,01,17,0.00
2012,04,17,01,18,0.00
2012,04,17,01,19,0.00
2012,04,17,01,20,0.00
2012,04,17,01,21,0.00
2012,04,17,01,22,0.00
2012,04,17,01,23,0.00
2012,04,17,01,24,0.00
2012,04,17,01,25,0.00
2012,04,17,01,26,0.00
2012,04,17,01,27,0.00
2012,04,17,01,28,0.00
2012,04,17,01,29,0.00
2012,04,17,01,30,0.00
2012,04,17,01,31,0.00
2012,04,17,01,32,0.00
2012,04,17,01,33,0.00
2012,04,17,01,34,0.00
2012,04,17,01,35,0.00
2012,04,17,01,36,0.00
2012,04,17,01,37,0.00
2012,04,17,01,38,0.00
2012,04,17,01,39,0.00
2012,04,17,01,40,0.00
2012,04,17,01,41,0.00
2012,04,17,01,42,0.00
2012,04,17,01,43,0.00
2012,04,17,01,44,0.00
2012,04,17,01,45,0.00
2012,04,17,01,46,0.00
2012,04,17,01,47,0.00
2012,04,17,01,48,0.00
2012,04,17,01,49,0.00
2012,04,17,01,50,0.00
2012,04,17,01,51,0.00
2012,04,17,01,52,0.00
2012,04,17,01,53,0.00
2012,04,17,01,54,0.00
2012,04,17,01,55,0.00
2012,04,17,01,56,0.00
2012,04,17,01,57,0.00
2012,04,17,01,58,0.00
2012,04,17,01,59,0.00
2012,04,17,02,00,0.00
2012,04,17,02,01,0.00
2012,04,17,02,02,0.00
2012,04,17,02,03,0.00
2012,04,17,02,04,0.00
2012,04,17,02,05,0.00
2012,04,17,02,06,0.00
2012,04,17,02,07,0.00
2012,04,17,02,08,0.00
2012,04,17,02,09,0.00
2012,04,17,02,10,0.00
2012,04,17,02,11,0.00
2012,04,17,02,12,0.00
2012,04,17,02,13,0.00
2012,04,17,02,14,0.00
2012,04,17,02,15,0.00
2012,04,17,02,16,0.00
2012,04,17,02,17,0.00
2012,04,17,02,18,0.00
2012,04,17,02,19,0.00
2012,04,17,02,20,0.00
2012,04,17,02,21,0.00
2012,04,17,02,22,0.00
2012,04,17,02,23,0.00
2012,04,17,02,24,0.00
2012,04,17,02,25,0.00
2012,04,17,02,26,0.00
2012,04,17,02,27,0.00
2012,04,17,02,28,0.00
2012,04,17,02,29,0.00
2012,04,17,02,30,0.00
2012,04,17,02,31,0.00
2012,04,17,02,32,0.00
2012,04,17,02,33,0.00
2012,04,17,02,34,0.00
2012,04,17,02,35,0.00
2012,04,17,02,36,0.00
2012,04,17,02,37,0.00
2012,04,17,02,38,0.00
2012,04,17,02,39,0.00
2012,04,17,02,40,0.00
2012,04,17,02,41,0.00
2012,04,17,02,42,0.00
2012,04,17,02,43,0.00
2012,04,17,02,44,0.00
2012,04,17,02,45,0.00
2012,04,17,02,46,0.00
2012,04,17,02,47,0.00
2012,04,17,02,48,0.00
2012,04,17,02,49,0.00
2012,04,17,02,50,0.00
2012,04,17,02,51,0.00
2012,04,17,02,52,0.00
2012,04,17,02,53,0.00
2012,04,17,02,54,0.00
2012,04,17,02,55,0.00
2012,04,17,02,56,0.00
2012,04,17,02,57,0.00
2012,04,17,02,58,0.00
2012,04,17,02,59,0.00
2012,04,17,03,00,0.00
2012,04,17,03,01,0.00
2012,04,17,03,02,0.00
2012,04,17,03,03,0.00
2012,04,17,03,06,0.00
2012,04,17,03,07,0.00
2012,04,17,03,08,0.00
2012,04,17,03,09,0.00
2012,04,17,03,10,0.00
2012,04,17,03,11,0.00
2012,04,17,03,12,0.00
2012,04,17,03,13,0.00
2012,04,17,03,14,0.00
2012,04,17,03,15,0.00
2012,04,17,03,16,0.00
2012,04,17,03,17,0.00
2012,04,17,03,18,0.00
2012,04,17,03,19,0.00
2012,04,17,03,20,0.00
2012,04,17,03,21,0.00
2012,04,17,03,22,0.00
2012,04,17,03,23,0.00
2012,04,17,03,24,0.00
2012,04,17,03,25,0.00
2012,04,17,03,26,0.00
2012,04,17,03,27,0.00
2012,04,17,03,28,0.00
2012,04,17,03,29,0.00
2012,04,17,03,30,0.00
2012,04,17,03,31,0.00
2012,04,17,03,32,0.00
2012,04,17,03,33,0.00
2012,04,17,03,34,0.00
2012,04,17,03,35,0.00
2012,04,17,03,36,0.00
2012,04,17,03,37,0.00
2012,04,17,03,38,0.00
2012,04,17,03,39,0.00
2012,04,17,03,40,0.00
2012,04,17,03,41,0.00
2012,04,17,03,42,0.00
2012,04,17,03,43,0.00
2012,04,17,03,44,0.00
2012,04,17,03,45,0.00
2012,04,17,03,46,0.00
2012,04,17,03,47,0.00
2012,04,17,03,48,0.00
2012,04,17,03,49,0.00
2012,04,17,03,50,0.00
2012,04,17,03,51,0.00
2012,04,17,03,52,0.00
2012,04,17,03,53,0.00
2012,04,17,03,54,0.00
2012,04,17,03,55,0.00
2012,04,17,03,56,0.00
2012,04,17,03,57,0.00
2012,04,17,03,58,0.00
2012,04,17,03,59,0.00
2012,04,17,04,00,0.00
2012,04,17,04,01,0.00
2012,04,17,04,02,0.00
2012,04,17,04,03,0.00
2012,04,17,04,04,0.00
2012,04,17,04,05,0.00
2012,04,17,04,06,0.00
2012,04,17,04,07,0.00
2012,04,17,04,08,0.00
2012,04,17,04,09,0.00
2012,04,17,04,10,0.00
2012,04,17,04,11,0.00
2012,04,17,04,12,0.00
2012,04,17,04,13,0.00
2012,04,17,04,14,0.00
2012,04,17,04,15,0.00
2012,04,17,04,16,0.00
2012,04,17,04,17,0.00
2012,04,17,04,18,0.00
2012,04,17,04,19,0.00
2012,04,17,04,20,0.00
2012,04,17,04,21,0.00
2012,04,17,04,22,0.00
2012,04,17,04,23,0.00
2012,04,17,04,24,0.00
2012,04,17,04,25,0.00
2012,04,17,04,26,0.00
2012,04,17,04,27,0.00
2012,04,17,04,28,0.00
2012,04,17,04,29,0.00
2012,04,17,04,30,0.00
2012,04,17,04,31,0.00
2012,04,17,04,32,0.00
2012,04,17,04,33,0.00
2012,04,17,04,34,0.00
2012,04,17,04,35,0.00
2012,04,17,04,36,0.00
2012,04,17,04,37,0.00
2012,04,17,04,38,0.00
2012,04,17,04,39,0.00
2012,04,17,04,40,0.00
2012,04,17,04,41,0.00
2012,04,17,04,42,0.00
2012,04,17,04,43,0.00
2012,04,17,04,44,0.00
2012,04,17,04,45,0.00
2012,04,17,04,46,0.00
2012,04,17,04,47,0.00
2012,04,17,04,48,0.00
2012,04,17,04,49,0.00
2012,04,17,04,50,0.00
2012,04,17,04,51,0.00
2012,04,17,04,52,0.00
2012,04,17,04,53,0.00
2012,04,17,04,54,0.00
2012,04,17,04,55,0.00
2012,04,17,04,56,0.00
2012,04,17,04,57,0.00
2012,04,17,04,58,0.00
2012,04,17,04,59,0.00
2012,04,17,05,00,0.00
2012,04,17,05,01,0.00
2012,04,17,05,02,0.00
2012,04,17,05,03,0.00
2012,04,17,05,04,0.00
2012,04,17,05,05,0.00
2012,04,17,05,06,0.00
2012,04,17,05,07,0.00
2012,04,17,05,08,0.00
2012,04,17,05,09,0.00
2012,04,17,05,10,0.00
2012,04,17,05,11,0.00
2012,04,17,05,12,0.00
2012,04,17,05,13,0.00
2012,04,17,05,14,0.00
2012,04,17,05,15,0.00
2012,04,17,05,16,0.00
2012,04,17,05,17,0.00
2012,04,17,05,18,0.00
2012,04,17,05,19,0.00
2012,04,17,05,20,0.00
2012,04,17,05,21,0.00
2012,04,17,05,22,0.00
2012,04,17,05,23,0.00
2012,04,17,05,24,0.00
2012,04,17,05,25,0.00
2012,04,17,05,26,0.00
2012,04,17,05,27,0.00
2012,04,17,05,28,0.00
2012,04,17,05,29,0.00
2012,04,17,05,30,0.00
2012,04,17,05,31,0.00
2012,04,17,05,32,0.00
2012,04,17,05,33,0.00
2012,04,17,05,34,0.00
2012,04,17,05,35,0.00
2012,04,17,05,36,0.00
2012,04,17,05,37,0.00
2012,04,17,05,38,0.00
2012,04,17,05,39,0.00
2012,04,17,05,40,0.00
2012,04,17,05,41,0.00
2012,04,17,05,42,0.00
2012,04,17,05,43,0.00
2012,04,17,05,44,0.00
2012,04,17,05,45,0.00
2012,04,17,05,46,0.00
2012,04,17,05,47,0.00
2012,04,17,05,48,0.00
2012,04,17,05,49,0.00
2012,04,17,05,50,0.00
2012,04,17,05,51,0.00
2012,04,17,05,52,0.00
2012,04,17,05,53,0.00
2012,04,17,05,54,0.00
2012,04,17,05,55,0.00
2012,04,17,05,56,0.00
2012,04,17,05,57,0.00
2012,04,17,05,58,0.00
2012,04,17,05,59,0.00
2012,04,17,06,00,0.00
2012,04,17,06,01,0.00
2012,04,17,06,02,0.00
2012,04,17,06,03,0.00
2012,04,17,06,04,0.00
2012,04,17,06,05,0.00
2012,04,17,06,06,0.00
2012,04,17,06,07,0.00
2012,04,17,06,08,0.00
2012,04,17,06,09,0.00
2012,04,17,06,10,0.00
2012,04,17,06,11,0.00
2012,04,17,06,12,0.00
2012,04,17,06,13,0.00
2012,04,17,06,14,0.00
2012,04,17,06,15,0.00
2012,04,17,06,16,0.00
2012,04,17,06,17,0.00
2012,04,17,06,18,0.00
2012,04,17,06,19,0.00
2012,04,17,06,20,0.00
2012,04,17,06,21,0.00
2012,04,17,06,22,0.00
2012,04,17,06,23,4.80
2012,04,17,06,24,5.00
2012,04,17,06,25,5.00
2012,04,17,06,26,5.00
2012,04,17,06,27,5.90
2012,04,17,06,28,7.00
2012,04,17,06,29,7.00
2012,04,17,06,30,8.50
2012,04,17,06,31,9.00
2012,04,17,06,32,11.00
2012,04,17,06,33,11.20
2012,04,17,06,34,12.70
2012,04,17,06,35,14.00
2012,04,17,06,36,15.00
2012,04,17,06,37,17.30
2012,04,17,06,38,18.70
2012,04,17,06,39,20.70
2012,04,17,06,40,23.00
2012,04,17,06,41,25.10
2012,04,17,06,42,26.50
2012,04,17,06,43,29.40
2012,04,17,06,44,32.50
2012,04,17,06,45,34.10
2012,04,17,06,46,36.40
2012,04,17,06,47,38.60
2012,04,17,06,48,39.90
2012,04,17,06,49,42.20
2012,04,17,06,50,44.40
2012,04,17,06,51,46.30
2012,04,17,06,52,47.00
2012,04,17,06,53,48.00
2012,04,17,06,54,49.00
2012,04,17,06,55,50.40
2012,04,17,06,56,52.60
2012,04,17,06,57,53.90
2012,04,17,06,58,56.60
2012,04,17,06,59,60.50
2012,04,17,07,00,62.00
2012,04,17,07,01,62.00
2012,04,17,07,02,62.00
2012,04,17,07,03,60.70
2012,04,17,07,04,61.50
2012,04,17,07,05,62.00
2012,04,17,07,06,63.00
2012,04,17,07,07,65.30
2012,04,17,07,08,67.00
2012,04,17,07,09,67.00
2012,04,17,07,10,67.00
2012,04,17,07,11,67.00
2012,04,17,07,12,67.00
2012,04,17,07,13,67.00
2012,04,17,07,14,68.80
2012,04,17,07,15,69.10
2012,04,17,07,16,70.00
2012,04,17,07,17,70.70
2012,04,17,07,18,72.80
2012,04,17,07,19,75.00
2012,04,17,07,20,76.70
2012,04,17,07,21,78.50
2012,04,17,07,22,80.60
2012,04,17,07,23,82.90
2012,04,17,07,24,83.00
2012,04,17,07,25,83.00
2012,04,17,07,26,83.00
2012,04,17,07,27,83.00
2012,04,17,07,28,83.00
2012,04,17,07,29,83.00
2012,04,17,07,30,83.00
2012,04,17,07,31,83.80
2012,04,17,07,32,84.00
2012,04,17,07,33,84.80
2012,04,17,07,34,88.60
2012,04,17,07,35,90.00
2012,04,17,07,36,90.50
2012,04,17,07,37,91.00
2012,04,17,07,38,88.90
2012,04,17,07,39,84.00
2012,04,17,07,40,81.20
2012,04,17,07,41,83.20
2012,04,17,07,42,85.30
2012,04,17,07,43,91.10
2012,04,17,07,44,92.10
2012,04,17,07,45,88.40
2012,04,17,07,46,84.70
2012,04,17,07,47,80.30
2012,04,17,07,48,74.70
2012,04,17,07,49,71.90
2012,04,17,07,50,68.40
2012,04,17,07,51,63.50
2012,04,17,07,52,58.40
2012,04,17,07,53,56.00
2012,04,17,07,54,56.00
2012,04,17,07,55,56.00
2012,04,17,07,56,57.60
2012,04,17,07,57,61.60
2012,04,17,07,58,67.80
2012,04,17,07,59,73.00
2012,04,17,08,00,77.10
2012,04,17,08,01,79.90
2012,04,17,08,02,81.00
2012,04,17,08,03,79.70
2012,04,17,08,04,75.20
2012,04,17,08,05,69.80
2012,04,17,08,06,65.10
2012,04,17,08,07,63.00
2012,04,17,08,08,63.50
2012,04,17,08,09,66.80
2012,04,17,08,10,70.90
2012,04,17,08,11,73.10
2012,04,17,08,12,77.30
2012,04,17,08,13,83.00
2012,04,17,08,14,85.80
2012,04,17,08,15,86.50
2012,04,17,08,16,93.70
2012,04,17,08,17,106.70
2012,04,17,08,18,114.20
2012,04,17,08,19,118.00
2012,04,17,08,20,121.80
2012,04,17,08,21,124.40
2012,04,17,08,22,129.00
2012,04,17,08,23,133.80
2012,04,17,08,24,131.70
2012,04,17,08,25,130.50
2012,04,17,08,26,133.10
2012,04,17,08,27,135.80
2012,04,17,08,28,137.00
2012,04,17,08,29,135.10
2012,04,17,08,30,132.50
2012,04,17,08,31,130.30
2012,04,17,08,32,130.20
2012,04,17,08,33,132.30
2012,04,17,08,34,135.50
2012,04,17,08,35,140.20
2012,04,17,08,36,145.50
2012,04,17,08,37,154.20
2012,04,17,08,38,163.90
2012,04,17,08,39,175.80
2012,04,17,08,40,197.80
2012,04,17,08,41,231.50
2012,04,17,08,42,227.40
2012,04,17,08,43,229.30
2012,04,17,08,44,222.40
2012,04,17,08,45,223.00
2012,04,17,08,46,230.80
2012,04,17,08,47,229.00
2012,04,17,08,48,229.90
2012,04,17,08,49,225.10
2012,04,17,08,50,220.90
2012,04,17,08,51,214.80
2012,04,17,08,52,197.60
2012,04,17,08,53,201.30
2012,04,17,08,54,200.60
2012,04,17,08,55,193.70
2012,04,17,08,56,190.70
2012,04,17,08,57,192.70
2012,04,17,08,58,199.90
2012,04,17,08,59,204.40
2012,04,17,09,00,215.10
2012,04,17,09,01,216.30
2012,04,17,09,02,218.50
2012,04,17,09,03,217.20
2012,04,17,09,04,213.00
2012,04,17,09,05,226.00
2012,04,17,09,06,242.80
2012,04,17,09,07,253.50
2012,04,17,09,08,259.20
2012,04,17,09,09,264.00
2012,04,17,09,10,263.10
2012,04,17,09,11,262.00
2012,04,17,09,12,259.20
2012,04,17,09,13,255.80
2012,04,17,09,14,257.50
2012,04,17,09,15,264.60
2012,04,17,09,16,265.00
2012,04,17,09,17,267.70
2012,04,17,09,18,276.80
2012,04,17,09,19,281.00
2012,04,17,09,20,282.10
2012,04,17,09,21,284.40
2012,04,17,09,22,259.40
2012,04,17,09,23,259.30
2012,04,17,09,24,301.10
2012,04,17,09,25,300.90
2012,04,17,09,26,286.30
2012,04,17,09,27,264.50
2012,04,17,09,28,274.50
2012,04,17,09,29,283.00
2012,04,17,09,30,281.60
2012,04,17,09,31,281.00
2012,04,17,09,32,289.40
2012,04,17,09,33,287.50
2012,04,17,09,34,283.50
2012,04,17,09,35,270.00
2012,04,17,09,36,267.50
2012,04,17,09,37,248.20
2012,04,17,09,38,244.60
2012,04,17,09,39,243.20
2012,04,17,09,40,237.60
2012,04,17,09,41,261.10
2012,04,17,09,42,271.20
2012,04,17,09,43,268.40
2012,04,17,09,44,265.20
2012,04,17,09,45,284.00
2012,04,17,09,46,302.70
2012,04,17,09,47,304.10
2012,04,17,09,48,309.20
2012,04,17,09,49,302.50
2012,04,17,09,50,312.00
2012,04,17,09,51,298.80
2012,04,17,09,52,269.20
2012,04,17,09,53,267.10
2012,04,17,09,54,276.50
2012,04,17,09,55,279.00
2012,04,17,09,56,268.20
2012,04,17,09,57,268.40
2012,04,17,09,58,264.00
2012,04,17,09,59,260.40
2012,04,17,10,00,260.50
2012,04,17,10,01,256.20
2012,04,17,10,02,255.00
2012,04,17,10,03,255.00
2012,04,17,10,04,255.00
2012,04,17,10,05,253.50
2012,04,17,10,06,253.00
2012,04,17,10,07,253.30
2012,04,17,10,08,255.60
2012,04,17,10,09,258.60
2012,04,17,10,10,260.90
2012,04,17,10,11,260.90
2012,04,17,10,12,260.00
2012,04,17,10,13,258.50
2012,04,17,10,14,258.00
2012,04,17,10,15,255.20
2012,04,17,10,16,252.70
2012,04,17,10,17,251.00
2012,04,17,10,18,251.00
2012,04,17,10,19,250.60
2012,04,17,10,20,248.90
2012,04,17,10,21,245.20
2012,04,17,10,22,243.20
2012,04,17,10,23,237.90
2012,04,17,10,24,234.00
2012,04,17,10,25,231.20
2012,04,17,10,26,225.30
2012,04,17,10,27,219.80
2012,04,17,10,28,217.00
2012,04,17,10,29,214.80
2012,04,17,10,30,215.40
2012,04,17,10,31,223.20
2012,04,17,10,32,235.40
2012,04,17,10,33,241.30
2012,04,17,10,34,244.80
2012,04,17,10,35,248.60
2012,04,17,10,36,250.40
2012,04,17,10,37,249.40
2012,04,17,10,38,245.50
2012,04,17,10,39,243.30
2012,04,17,10,40,239.60
2012,04,17,10,41,239.20
2012,04,17,10,42,243.10
2012,04,17,10,43,245.10
2012,04,17,10,44,250.00
2012,04,17,10,45,255.00
2012,04,17,10,46,257.50
2012,04,17,10,47,258.00
2012,04,17,10,48,254.10
2012,04,17,10,49,247.10
2012,04,17,10,50,236.00
2012,04,17,10,51,235.60
2012,04,17,10,52,233.40
2012,04,17,10,53,230.80
2012,04,17,10,54,225.00
2012,04,17,10,55,216.80
2012,04,17,10,56,212.00
2012,04,17,10,57,212.70
2012,04,17,10,58,220.00
2012,04,17,10,59,228.10
2012,04,17,11,00,236.20
2012,04,17,11,01,244.10
2012,04,17,11,02,246.00
2012,04,17,11,03,244.40
2012,04,17,11,04,238.40
2012,04,17,11,05,230.70
2012,04,17,11,06,220.90
2012,04,17,11,07,208.30
2012,04,17,11,08,195.00
2012,04,17,11,09,189.00
2012,04,17,11,10,172.00
2012,04,17,11,11,167.00
2012,04,17,11,12,167.40
2012,04,17,11,13,172.20
2012,04,17,11,14,175.60
2012,04,17,11,15,172.40
2012,04,17,11,16,171.00
2012,04,17,11,17,169.50
2012,04,17,11,18,162.80
2012,04,17,11,19,156.80
2012,04,17,11,20,155.60
2012,04,17,11,21,156.00
2012,04,17,11,22,150.80
2012,04,17,11,23,146.40
2012,04,17,11,24,147.90
2012,04,17,11,25,147.60
2012,04,17,11,26,145.40
2012,04,17,11,27,145.50
2012,04,17,11,28,148.50
2012,04,17,11,29,151.40
2012,04,17,11,30,156.50
2012,04,17,11,31,165.20
2012,04,17,11,32,170.40
2012,04,17,11,33,168.70
2012,04,17,11,34,164.60
2012,04,17,11,35,163.60
2012,04,17,11,36,166.60
2012,04,17,11,37,170.00
2012,04,17,11,38,172.90
2012,04,17,11,39,176.90
2012,04,17,11,40,180.60
2012,04,17,11,41,184.90
2012,04,17,11,42,185.90
2012,04,17,11,43,185.00
2012,04,17,11,44,185.40
2012,04,17,11,45,186.90
2012,04,17,11,46,189.10
2012,04,17,11,47,191.90
2012,04,17,11,48,197.50
2012,04,17,11,49,205.00
2012,04,17,11,50,213.10
2012,04,17,11,51,213.40
2012,04,17,11,52,209.80
2012,04,17,11,53,207.00
2012,04,17,11,54,210.30
2012,04,17,11,55,217.90
2012,04,17,11,56,225.20
2012,04,17,11,57,225.40
2012,04,17,11,58,221.40
2012,04,17,11,59,221.20
2012,04,17,12,00,223.40
2012,04,17,12,01,226.80
2012,04,17,12,02,231.60
2012,04,17,12,03,235.60
2012,04,17,12,04,237.00
2012,04,17,12,05,233.20
2012,04,17,12,06,226.40
2012,04,17,12,07,227.50
2012,04,17,12,08,241.40
2012,04,17,12,09,256.80
2012,04,17,12,10,262.70
2012,04,17,12,11,260.00
2012,04,17,12,12,247.30
2012,04,17,12,13,230.60
2012,04,17,12,14,223.50
2012,04,17,12,15,228.40
2012,04,17,12,16,239.00
2012,04,17,12,17,244.00
2012,04,17,12,18,242.20
2012,04,17,12,19,238.20
2012,04,17,12,20,237.00
2012,04,17,12,21,239.40
2012,04,17,12,22,242.40
2012,04,17,12,23,241.30
2012,04,17,12,24,239.20
2012,04,17,12,25,241.00
2012,04,17,12,26,240.00
2012,04,17,12,27,235.90
2012,04,17,12,28,233.10
2012,04,17,12,29,232.00
2012,04,17,12,30,234.60
2012,04,17,12,31,239.80
2012,04,17,12,32,242.70
2012,04,17,12,33,240.40
2012,04,17,12,34,231.40
2012,04,17,12,35,217.30
2012,04,17,12,36,204.20
2012,04,17,12,37,199.00
2012,04,17,12,38,195.40
2012,04,17,12,39,188.10
2012,04,17,12,40,177.60
2012,04,17,12,41,171.70
2012,04,17,12,42,176.70
2012,04,17,12,43,183.60
2012,04,17,12,44,186.00
2012,04,17,12,45,184.70
2012,04,17,12,46,182.00
2012,04,17,12,47,181.00
2012,04,17,12,48,181.00
2012,04,17,12,49,182.70
2012,04,17,12,50,183.00
2012,04,17,12,51,182.40
2012,04,17,12,52,178.80
2012,04,17,12,53,177.20
2012,04,17,12,54,176.00
2012,04,17,12,55,177.10
2012,04,17,12,56,178.60
2012,04,17,12,57,178.20
2012,04,17,12,58,172.90
2012,04,17,12,59,167.00
2012,04,17,13,00,168.40
2012,04,17,13,01,176.10
2012,04,17,13,02,185.40
2012,04,17,13,03,195.50
2012,04,17,13,04,203.20
2012,04,17,13,05,209.50
2012,04,17,13,06,215.00
2012,04,17,13,07,222.60
2012,04,17,13,08,230.60
2012,04,17,13,09,234.50
2012,04,17,13,10,233.90
2012,04,17,13,11,226.90
2012,04,17,13,12,221.40
2012,04,17,13,13,220.60
2012,04,17,13,14,224.20
2012,04,17,13,15,225.00
2012,04,17,13,16,222.90
2012,04,17,13,17,217.20
2012,04,17,13,18,215.10
2012,04,17,13,19,218.70
2012,04,17,13,20,220.40
2012,04,17,13,21,219.20
2012,04,17,13,22,214.80
2012,04,17,13,23,208.20
2012,04,17,13,24,208.80
2012,04,17,13,25,216.50
2012,04,17,13,26,221.00
2012,04,17,13,27,220.10
2012,04,17,13,28,216.00
2012,04,17,13,29,208.30
2012,04,17,13,30,198.60
2012,04,17,13,31,189.80
2012,04,17,13,32,180.40
2012,04,17,13,33,174.20
2012,04,17,13,34,167.90
2012,04,17,13,35,159.20
2012,04,17,13,36,147.20
2012,04,17,13,37,137.90
2012,04,17,13,38,132.80
2012,04,17,13,39,133.40
2012,04,17,13,40,137.90
2012,04,17,13,41,147.50
2012,04,17,13,42,160.10
2012,04,17,13,43,174.20
2012,04,17,13,44,186.00
2012,04,17,13,45,195.40
2012,04,17,13,46,204.50
2012,04,17,13,47,212.10
2012,04,17,13,48,218.50
2012,04,17,13,49,225.60
2012,04,17,13,50,229.70
2012,04,17,13,51,229.60
2012,04,17,13,52,225.20
2012,04,17,13,53,218.10
2012,04,17,13,54,211.80
2012,04,17,13,55,207.90
2012,04,17,13,56,206.40
2012,04,17,13,57,206.00
2012,04,17,13,58,206.00
2012,04,17,13,59,207.10
2012,04,17,14,00,211.80
2012,04,17,14,01,217.20
2012,04,17,14,02,223.10
2012,04,17,14,03,228.50
2012,04,17,14,04,231.20
2012,04,17,14,05,233.40
2012,04,17,14,06,235.60
2012,04,17,14,07,236.90
2012,04,17,14,08,241.30
2012,04,17,14,09,244.40
2012,04,17,14,10,246.00
2012,04,17,14,11,246.00
2012,04,17,14,12,244.90
2012,04,17,14,13,243.40
2012,04,17,14,14,241.50
2012,04,17,14,15,237.60
2012,04,17,14,16,232.20
2012,04,17,14,17,226.10
2012,04,17,14,18,220.80
2012,04,17,14,19,220.00
2012,04,17,14,20,222.20
2012,04,17,14,21,229.00
2012,04,17,14,22,235.50
2012,04,17,14,23,238.50
2012,04,17,14,24,239.00
2012,04,17,14,25,239.20
2012,04,17,14,26,241.50
2012,04,17,14,27,244.00
2012,04,17,14,28,242.00
2012,04,17,14,29,235.50
2012,04,17,14,30,225.40
2012,04,17,14,31,212.60
2012,04,17,14,32,199.40
2012,04,17,14,33,190.70
2012,04,17,14,34,188.30
2012,04,17,14,35,191.90
2012,04,17,14,36,201.80
2012,04,17,14,37,210.80
2012,04,17,14,38,219.90
2012,04,17,14,39,226.90
2012,04,17,14,40,229.80
2012,04,17,14,41,231.70
2012,04,17,14,42,232.10
2012,04,17,14,43,234.60
2012,04,17,14,44,238.20
2012,04,17,14,45,242.10
2012,04,17,14,46,245.90
2012,04,17,14,47,249.70
2012,04,17,14,48,253.70
2012,04,17,14,49,256.60
2012,04,17,14,50,259.80
2012,04,17,14,51,262.00
2012,04,17,14,52,262.00
2012,04,17,14,53,261.40
2012,04,17,14,54,260.00
2012,04,17,14,55,260.00
2012,04,17,14,56,260.00
2012,04,17,14,57,261.40
2012,04,17,14,58,262.00
2012,04,17,14,59,262.10
2012,04,17,15,00,264.00
2012,04,17,15,01,264.00
2012,04,17,15,02,264.40
2012,04,17,15,03,264.50
2012,04,17,15,04,262.90
2012,04,17,15,05,259.40
2012,04,17,15,06,255.80
2012,04,17,15,07,249.10
2012,04,17,15,08,238.60
2012,04,17,15,09,227.90
2012,04,17,15,10,213.00
2012,04,17,15,11,203.60
2012,04,17,15,12,202.00
2012,04,17,15,13,208.20
2012,04,17,15,14,215.70
2012,04,17,15,15,225.20
2012,04,17,15,16,231.50
2012,04,17,15,17,232.90
2012,04,17,15,18,221.20
2012,04,17,15,19,211.60
2012,04,17,15,20,205.10
2012,04,17,15,21,202.90
2012,04,17,15,22,200.70
2012,04,17,15,23,196.20
2012,04,17,15,24,192.40
2012,04,17,15,25,187.90
2012,04,17,15,26,184.20
2012,04,17,15,27,180.20
2012,04,17,15,28,177.30
2012,04,17,15,29,175.00
2012,04,17,15,30,172.90
2012,04,17,15,31,172.00
2012,04,17,15,32,172.00
2012,04,17,15,33,173.70
2012,04,17,15,34,174.20
2012,04,17,15,35,176.60
2012,04,17,15,36,180.20
2012,04,17,15,37,183.80
2012,04,17,15,38,185.00
2012,04,17,15,39,183.80
2012,04,17,15,40,179.20
2012,04,17,15,41,172.10
2012,04,17,15,42,160.60
2012,04,17,15,43,147.50
2012,04,17,15,44,137.80
2012,04,17,15,45,133.30
2012,04,17,15,46,135.30
2012,04,17,15,47,146.20
2012,04,17,15,48,161.10
2012,04,17,15,49,176.10
2012,04,17,15,50,185.30
2012,04,17,15,51,188.00
2012,04,17,15,52,188.00
2012,04,17,15,53,186.50
2012,04,17,15,54,180.20
2012,04,17,15,55,170.50
2012,04,17,15,56,159.00
2012,04,17,15,57,147.30
2012,04,17,15,58,141.60
2012,04,17,15,59,148.20
2012,04,17,16,00,155.70
2012,04,17,16,01,153.00
2012,04,17,16,02,156.10
2012,04,17,16,03,166.50
2012,04,17,16,04,175.30
2012,04,17,16,05,176.70
2012,04,17,16,06,169.20
2012,04,17,16,07,159.40
2012,04,17,16,08,159.90
2012,04,17,16,09,157.30
2012,04,17,16,10,140.30
2012,04,17,16,11,119.80
2012,04,17,16,12,103.80
2012,04,17,16,13,99.10
2012,04,17,16,14,108.90
2012,04,17,16,15,122.00
2012,04,17,16,16,132.70
2012,04,17,16,17,141.30
2012,04,17,16,18,143.60
2012,04,17,16,19,142.00
2012,04,17,16,20,142.80
2012,04,17,16,21,151.40
2012,04,17,16,22,164.80
2012,04,17,16,23,163.80
2012,04,17,16,24,150.80
2012,04,17,16,25,138.10
2012,04,17,16,26,135.30
2012,04,17,16,27,125.40
2012,04,17,16,28,127.30
2012,04,17,16,29,132.10
2012,04,17,16,30,142.80
2012,04,17,16,31,152.60
2012,04,17,16,32,161.00
2012,04,17,16,33,171.10
2012,04,17,16,34,172.60
2012,04,17,16,35,177.20
2012,04,17,16,36,172.50
2012,04,17,16,37,167.40
2012,04,17,16,38,163.60
2012,04,17,16,39,160.80
2012,04,17,16,40,157.20
2012,04,17,16,41,152.00
2012,04,17,16,42,149.20
2012,04,17,16,43,149.60
2012,04,17,16,44,156.00
2012,04,17,16,45,160.70
2012,04,17,16,46,160.20
2012,04,17,16,47,154.30
2012,04,17,16,48,145.40
2012,04,17,16,49,138.20
2012,04,17,16,50,135.30
2012,04,17,16,51,131.70
2012,04,17,16,52,121.20
2012,04,17,16,53,109.20
2012,04,17,16,54,102.40
2012,04,17,16,55,100.00
2012,04,17,16,56,100.00
2012,04,17,16,57,101.30
2012,04,17,16,58,103.60
2012,04,17,16,59,106.70
2012,04,17,17,00,109.00
2012,04,17,17,01,108.60
2012,04,17,17,02,106.10
2012,04,17,17,03,102.30
2012,04,17,17,04,98.50
2012,04,17,17,05,95.80
2012,04,17,17,06,92.00
2012,04,17,17,07,88.50
2012,04,17,17,08,86.10
2012,04,17,17,09,84.00
2012,04,17,17,10,84.00
2012,04,17,17,11,85.60
2012,04,17,17,12,89.30
2012,04,17,17,13,94.70
2012,04,17,17,14,101.70
2012,04,17,17,15,108.00